Location: Peterborough
(44.3091°N, 78.3197°W)
Time: 04:43:29
(UTC-04:00)

Tiros 1 - Pass Details

Date: 09 April 2023
Orbit: 627 x 661 km, 48.4° (Epoch: 09 June)

Event Time Altitude Azimuth Distance (km) Brightness Sun altitude
Rises 05:35:17 0° 292° (WNW) 2,983 - -12.0°
Exits shadow 05:36:56 - 292° (WNW) 2,342 9.6 -11.7°
Reaches altitude 10° 05:37:38 10° 293° (WNW) 2,073 9.3 -11.6°
Maximum altitude 05:42:26 87° 23° (NNE) 666 7.2 -10.8°
Drops below altitude 10° 05:47:14 10° 112° (ESE) 2,072 10.5 -10.0°
Sets 05:49:35 0° 113° (ESE) 2,982 11.3 -9.6°
